Regional Weather Roundup
Issued by NWS New Orleans/Baton Rouge, LA

Home | Current Version | Previous Version | Graphics & Text | Print | Product List | Glossary On
Versions: 1 2 3 4 5 6 7 8 9 10 11 12 13 14 15 16 17 18 19 20 21 22 23 24 25 26 27 28 29 30 31 32 33 34 35 36 37 38 39 40 41 42 43 44 45 46 47 48 49 50
550
ASUS44 KLIX 191005
RWRLIX
NEW ORLEANS REGIONAL WEATHER ROUNDUP
NATIONAL WEATHER SERVICE NEW ORLEANS LA
400 AM CST FRI DEC 19 2014

NOTE: "FAIR" INDICATES FEW OR NO CLOUDS BELOW 12,000 FEET WITH NO
      SIGNIFICANT WEATHER AND/OR OBSTRUCTIONS TO VISIBILITY.
      SKY/WX - SKY CONDITION AND SIGNIFICANT WEATHER.
      TMP - AIR TEMPERATURE.     DP    - DEWPOINT TEMPERATURE.
      RH  - RELATIVE HUMIDITY.   PRES  - PRESSURE.
      HI  - HEAT INDEX.          WCI   - WIND CHILL INDEX.

*  THESE STATIONS ARE NOT NWS OR FAA STATIONS AND ARE NOT UNDER
   NWS QUALITY CONTROL.

LAZ038-040-048-061>063-065>067-069-191100-
SOUTHEAST LOUISIANA

CITY           SKY/WX    TMP DP  RH WIND       PRES   REMARKS
N.O. AUDUBON     N/A     60  53  77 MISG        N/A
N.O. INTL ARPT CLOUDY    57  50  77 E10       30.05F
N.O. LAKEFRONT CLOUDY    58  50  75 E13       30.06F
N.O. DOWNTOWN* PTSUNNY   57  48  72 E10G20    30.05F
SLIDELL        CLOUDY    55  50  83 NE8       30.07F
BATON ROUGE    HVY RAIN  53  52  96 NE7       30.05S FOG
BOOTHVILLE     CLOUDY    61  56  83 N9        30.06S
BELLE CHASSE   CLOUDY    56  53  90 E12       30.05S
BOGALUSA*        N/A     54  50  87 CALM      30.10F
GALLIANO*      CLOUDY    58  57  97 MISG      30.04S
NEW ROADS*     RAIN      53  53  98 N9        30.05F
GONZALES*      LGT RAIN  56  56 100 CALM      30.05R
HAMMOND*       NOT AVBL
HOUMA*         CLOUDY    59  58  98 NE6       30.04S FOG
PORT FOURCHON* CLOUDY    64  61  88 NE7       30.05F

$$

MSZ070-080>082-191100-
SOUTHERN MISSISSIPPI

CITY           SKY/WX    TMP DP  RH WIND       PRES   REMARKS
MCCOMB         CLOUDY    52  49  89 NE7       30.09S
GULFPORT       CLOUDY    54  49  83 NE8       30.09F
BILOXI         CLOUDY    54  50  85 NE10      30.09F
PASCAGOULA     CLOUDY    54  47  77 NE8       30.10F

$$

COASTAL OBSERVATIONS
LAKE AND NEARSHORE STATIONS

STATION/POSITION TIME  TEMP    WIND        PRES    WAVE
                       AIR SEA DIR/SP/G            HT/PER
                 (UTC) (F)     (DEG/KT/KT) (MB)    (FT/S)
PASCAGOULA       1000   55      40/  9/ 12 1018.4
WAVELAND YACHT   1000   55      60/ 12/ 13 1017.8
GRAND ISLE       1000   62 62   80/  9/ 11 1017.3
SOUTHWEST PASS   1000   61                 1017.4
NEW CANAL        1000   57 58   70/ 12/ 15 1017.9
SHELL BEACH      1000   57 60   70/ 18/ 20 1017.6

OFFSHORE STATIONS

STATION/POSITION TIME  TEMP    WIND        PRES    WAVE
                       AIR SEA DIR/SP/G            HT/PER
                 (UTC) (F)     (DEG/KT/KT) (MB)    (FT/S)
64 S DAUPHIN ISL 1000   69 75   90/ 12/ 16 1017.6    1/ 8

$$




USA.gov is the U.S. government's official web portal to all federal, state and local government web resources and services.